| time (UTC) | temp F | wind direction | speed knots | gust knots | rain 1hr in | rain 24hr in | rain mn in | humidity % | barometer mb |
| 20260507064612 | 50 | 74 | 2.6 | 5.2 | 0.00 | 0.00 | 0.00 | 78 | 1015.0 |
| 20260507063113 | 50 | 41 | 1.7 | 4.3 | 0.00 | 0.00 | 0.00 | 79 | 1014.9 |
| 20260507061603 | 49 | 336 | 1.7 | 3.5 | 0.00 | 0.00 | 0.00 | 79 | 1014.8 |
| 20260507060114 | 49 | 343 | 1.7 | 2.6 | 0.00 | 0.00 | 0.00 | 80 | 1014.7 |
| 20260507054601 | 49 | 329 | 0.9 | 2.6 | 0.00 | 0.00 | 0.00 | 80 | 1014.5 |
| 20260507053106 | 49 | 323 | 0.9 | 1.7 | 0.00 | 0.00 | 0.00 | 80 | 1014.4 |
| 20260507051602 | 49 | 314 | 0.9 | 1.7 | 0.00 | 0.00 | 0.00 | 80 | 1014.4 |
| 20260507050022 | 48 | 295 | 0.9 | 1.7 | 0.00 | 0.00 | 0.00 | 80 | 1014.2 |
| 20260507044626 | 48 | 287 | 0.0 | 1.7 | 0.00 | 0.01 | 0.00 | 80 | 1014.0 |
| 20260507043133 | 48 | 285 | 0.0 | 1.7 | 0.00 | 0.01 | 0.00 | 79 | 1013.9 |
| 20260507041624 | 48 | 285 | 0.0 | 1.7 | 0.00 | 0.01 | 0.00 | 79 | 1013.8 |
| 20260507034557 | 49 | 305 | 0.0 | 1.7 | 0.00 | 0.01 | 0.00 | 78 | 1013.5 |
| 20260507033102 | 49 | 327 | 0.0 | 0.9 | 0.00 | 0.01 | 0.00 | 77 | 1013.5 |
| 20260507031608 | 49 | 327 | 0.0 | 1.7 | 0.00 | 0.01 | 0.00 | 77 | 1013.4 |
| 20260507030111 | 49 | 327 | 0.0 | 1.7 | 0.00 | 0.01 | 0.00 | 76 | 1013.4 |
| 20260507024632 | 49 | 327 | 0.0 | 1.7 | 0.00 | 0.02 | 0.00 | 77 | 1013.3 |
| 20260507023116 | 49 | 327 | 0.0 | 1.7 | 0.00 | 0.02 | 0.00 | 77 | 1013.3 |
| 20260507021613 | 49 | 327 | 0.0 | 0.0 | 0.00 | 0.02 | 0.00 | 76 | 1013.2 |
| 20260507020121 | 49 | 327 | 0.0 | 1.7 | 0.00 | 0.02 | 0.00 | 75 | 1013.0 |
| 20260507014616 | 49 | 327 | 0.0 | 1.7 | 0.00 | 0.02 | 0.00 | 74 | 1012.9 |
| 20260507013127 | 49 | 327 | 0.0 | 0.0 | 0.00 | 0.02 | 0.00 | 73 | 1012.9 |
| 20260507011536 | 49 | 327 | 0.0 | 0.0 | 0.00 | 0.02 | 0.00 | 73 | 1012.9 |
| 20260507010001 | 49 | 327 | 0.0 | 0.0 | 0.00 | 0.02 | 0.00 | 73 | 1012.9 |
| 20260507004543 | 49 | 327 | 0.0 | 1.7 | 0.00 | 0.02 | 0.00 | 73 | 1012.9 |
| 20260507003006 | 49 | 327 | 0.0 | 1.7 | 0.00 | 0.02 | 0.00 | 73 | 1012.8 |
| 20260507001502 | 49 | 332 | 0.0 | 1.7 | 0.00 | 0.02 | 0.00 | 73 | 1012.7 |
| 20260507000137 | 49 | 323 | 0.0 | 1.7 | 0.00 | 0.02 | 0.00 | 74 | 1012.8 |
| 20260506234509 | 49 | 323 | 0.0 | 1.7 | 0.00 | 0.02 | 0.00 | 74 | 1012.8 |
| 20260506233123 | 50 | 329 | 0.0 | 1.7 | 0.00 | 0.02 | 0.00 | 74 | 1012.6 |
| 20260506231514 | 50 | 324 | 0.0 | 1.7 | 0.00 | 0.02 | 0.00 | 74 | 1012.6 |
| 20260506230134 | 50 | 325 | 0.9 | 1.7 | 0.00 | 0.02 | 0.00 | 74 | 1012.5 |
| 20260506224508 | 50 | 343 | 0.0 | 1.7 | 0.00 | 0.04 | 0.00 | 74 | 1012.3 |
| 20260506223055 | 50 | 339 | 0.0 | 2.6 | 0.00 | 0.04 | 0.00 | 73 | 1012.2 |
| 20260506221518 | 50 | 335 | 0.9 | 1.7 | 0.00 | 0.04 | 0.00 | 73 | 1012.2 |
| 20260506214559 | 50 | 347 | 0.9 | 1.7 | 0.00 | 0.06 | 0.04 | 72 | 1012.1 |
| 20260506213142 | 50 | 355 | 0.9 | 2.6 | 0.00 | 0.06 | 0.04 | 71 | 1012.0 |
| 20260506211632 | 51 | 360 | 0.9 | 3.5 | 0.00 | 0.06 | 0.04 | 70 | 1011.9 |
| 20260506210103 | 51 | 339 | 1.7 | 3.5 | 0.00 | 0.06 | 0.04 | 69 | 1011.8 |
| 20260506204519 | 51 | 55 | 1.7 | 3.5 | 0.00 | 0.07 | 0.04 | 69 | 1011.7 |
| 20260506203007 | 51 | 29 | 1.7 | 4.3 | 0.00 | 0.07 | 0.04 | 68 | 1011.5 |
| 20260506201553 | 51 | 39 | 2.6 | 6.1 | 0.00 | 0.07 | 0.04 | 69 | 1011.4 |
| 20260506200132 | 51 | 45 | 0.9 | 3.5 | 0.00 | 0.07 | 0.04 | 70 | 1011.3 |
| 20260506194629 | 51 | 46 | 0.9 | 3.5 | 0.00 | 0.07 | 0.04 | 70 | 1011.3 |
| 20260506193124 | 51 | 46 | 1.7 | 7.8 | 0.00 | 0.07 | 0.04 | 70 | 1011.2 |
| 20260506191621 | 51 | 89 | 2.6 | 4.3 | 0.00 | 0.07 | 0.04 | 69 | 1011.0 |
| 20260506190120 | 51 | 347 | 2.6 | 9.6 | 0.00 | 0.07 | 0.04 | 68 | 1010.8 |
| 20260506184609 | 52 | 335 | 3.5 | 7.8 | 0.00 | 0.08 | 0.04 | 66 | 1010.6 |
| 20260506183110 | 53 | 85 | 3.5 | 8.7 | 0.00 | 0.08 | 0.04 | 65 | 1010.5 |
| 20260506181600 | 53 | 13 | 3.5 | 7.8 | 0.00 | 0.08 | 0.04 | 63 | 1010.3 |
| 20260506180015 | 54 | 28 | 7.0 | 11.3 | 0.00 | 0.08 | 0.04 | 60 | 1010.1 |
| 20260506174546 | 54 | 299 | 3.5 | 8.7 | 0.00 | 0.08 | 0.04 | 61 | 1009.8 |
| 20260506173138 | 54 | 18 | 3.5 | 9.6 | 0.00 | 0.08 | 0.04 | 58 | 1009.6 |
| 20260506171502 | 55 | 42 | 2.6 | 9.6 | 0.00 | 0.08 | 0.04 | 58 | 1009.4 |
| 20260506170128 | 56 | 4 | 7.0 | 11.3 | 0.00 | 0.08 | 0.04 | 55 | 1009.2 |
| 20260506164611 | 57 | 13 | 5.2 | 8.7 | 0.00 | 0.08 | 0.04 | 57 | 1009.0 |
| 20260506163116 | 57 | 331 | 5.2 | 10.4 | 0.00 | 0.08 | 0.04 | 58 | 1008.9 |
| 20260506161605 | 57 | 303 | 5.2 | 10.4 | 0.00 | 0.08 | 0.04 | 60 | 1008.9 |
| 20260506154622 | 57 | 56 | 4.3 | 9.6 | 0.00 | 0.09 | 0.04 | 60 | 1008.7 |
| 20260506153124 | 58 | 35 | 3.5 | 8.7 | 0.00 | 0.09 | 0.04 | 60 | 1008.8 |
| 20260506151612 | 58 | 23 | 3.5 | 7.0 | 0.00 | 0.09 | 0.04 | 58 | 1008.7 |
| 20260506150106 | 57 | 140 | 3.5 | 11.3 | 0.00 | 0.09 | 0.04 | 58 | 1008.6 |
| 20260506144608 | 57 | 33 | 5.2 | 12.2 | 0.00 | 0.09 | 0.04 | 56 | 1008.6 |
| 20260506143110 | 58 | 4 | 3.5 | 8.7 | 0.00 | 0.09 | 0.04 | 56 | 1008.5 |
| 20260506141554 | 58 | 48 | 2.6 | 11.3 | 0.00 | 0.09 | 0.04 | 58 | 1008.6 |
| 20260506140007 | 59 | 27 | 4.3 | 9.6 | 0.00 | 0.09 | 0.04 | 59 | 1008.6 |
| 20260506134628 | 59 | 323 | 4.3 | 9.6 | 0.00 | 0.09 | 0.04 | 59 | 1008.5 |
| 20260506133129 | 58 | 52 | 3.5 | 7.0 | 0.00 | 0.09 | 0.04 | 62 | 1008.5 |
| 20260506131617 | 58 | 323 | 0.9 | 7.0 | 0.00 | 0.09 | 0.04 | 63 | 1008.5 |
| 20260506130118 | 57 | 345 | 2.6 | 5.2 | 0.00 | 0.09 | 0.04 | 66 | 1008.5 |
| 20260506124606 | 56 | 27 | 2.6 | 7.8 | 0.00 | 0.09 | 0.04 | 67 | 1008.5 |
| 20260506123116 | 56 | 341 | 2.6 | 9.6 | 0.00 | 0.09 | 0.04 | 66 | 1008.5 |
| 20260506121610 | 56 | 18 | 3.5 | 6.1 | 0.00 | 0.09 | 0.04 | 67 | 1008.5 |
| 20260506120122 | 56 | 330 | 4.3 | 7.0 | 0.00 | 0.09 | 0.04 | 68 | 1008.4 |
| 20260506114607 | 55 | 344 | 4.3 | 8.7 | 0.00 | 0.09 | 0.04 | 68 | 1008.4 |
| 20260506113100 | 55 | 348 | 5.2 | 7.8 | 0.00 | 0.09 | 0.04 | 68 | 1008.3 |
| 20260506111518 | 56 | 352 | 5.2 | 11.3 | 0.00 | 0.09 | 0.04 | 67 | 1008.3 |
| 20260506110137 | 56 | 337 | 3.5 | 11.3 | 0.00 | 0.09 | 0.04 | 69 | 1008.3 |
| 20260506104623 | 56 | 23 | 4.3 | 8.7 | 0.00 | 0.09 | 0.04 | 73 | 1008.5 |
| 20260506103131 | 54 | 331 | 5.2 | 7.8 | 0.00 | 0.09 | 0.04 | 77 | 1008.4 |
| 20260506101611 | 53 | 39 | 3.5 | 6.1 | 0.00 | 0.09 | 0.04 | 81 | 1008.4 |
| 20260506094624 | 52 | 328 | 2.6 | 7.8 | 0.00 | 0.09 | 0.04 | 86 | 1008.4 |
| 20260506093119 | 51 | 323 | 4.3 | 8.7 | 0.00 | 0.09 | 0.04 | 88 | 1008.3 |
| 20260506091609 | 50 | 335 | 4.3 | 7.8 | 0.00 | 0.09 | 0.04 | 88 | 1008.3 |
| 20260506090033 | 50 | 343 | 2.6 | 5.2 | 0.00 | 0.09 | 0.04 | 88 | 1008.2 |
| 20260506084614 | 50 | 339 | 1.7 | 5.2 | 0.00 | 0.09 | 0.04 | 88 | 1008.2 |
| 20260506083051 | 49 | 319 | 3.5 | 6.1 | 0.00 | 0.09 | 0.04 | 88 | 1008.1 |
| 20260506081510 | 49 | 310 | 0.9 | 5.2 | 0.00 | 0.09 | 0.04 | 88 | 1008.0 |
| 20260506080142 | 48 | 308 | 3.5 | 7.0 | 0.00 | 0.09 | 0.04 | 88 | 1008.0 |
| 20260506073127 | 48 | 13 | 3.5 | 8.7 | 0.00 | 0.09 | 0.04 | 87 | 1007.9 |
| 20260506071616 | 48 | 342 | 3.5 | 7.0 | 0.00 | 0.09 | 0.04 | 87 | 1007.7 |
| 20260506070117 | 48 | 333 | 2.6 | 8.7 | 0.00 | 0.09 | 0.04 | 87 | 1007.8 |